UAL457 LICJ-LEMH

Flight info

Callsign UAL457
Flight time 1h 12m
Altitude 38000
Route KAPIL DCT ADAMI DCT NEVOT DCT LIED DCT ETEKO DCT MORSS
Aircraft B77W/H-SDE1E2E3FGHIJ2J3J4J5M1RWXY/LB1D1

Departure

Time 2026-04-21 14:18
Airport Falcone–Borsellino Airport (LICJ)

Arrival

Time 2026-04-21 15:30
Airport Menorca Airport (LEMH)
Time Latitude Longitude Altitude Speed Heading
2026-04-21 13:56 38.18471 13.10358 70 ft 0 kts 63°
2026-04-21 14:10 38.18471 13.10361 70 ft 2 kts 68°
2026-04-21 14:10 38.18470 13.10381 63 ft 2 kts 102°
2026-04-21 14:11 38.18462 13.10402 62 ft 3 kts 115°
2026-04-21 14:11 38.18452 13.10428 65 ft 4 kts 114°
2026-04-21 14:11 38.18431 13.10474 64 ft 6 kts 133°
2026-04-21 14:11 38.18390 13.10491 62 ft 7 kts 184°
2026-04-21 14:12 38.18347 13.10473 62 ft 7 kts 212°
2026-04-21 14:12 38.18316 13.10426 63 ft 7 kts 240°
2026-04-21 14:12 38.18281 13.10380 63 ft 8 kts 200°
2026-04-21 14:12 38.18230 13.10364 68 ft 8 kts 210°
2026-04-21 14:13 38.18197 13.10307 64 ft 8 kts 243°
2026-04-21 14:13 38.18170 13.10239 63 ft 9 kts 244°
2026-04-21 14:13 38.18144 13.10166 63 ft 9 kts 246°
2026-04-21 14:13 38.18120 13.10094 65 ft 0 kts 248°
2026-04-21 14:14 38.18118 13.10090 64 ft 1 kts 248°
2026-04-21 14:14 38.18114 13.10076 62 ft 3 kts 248°
2026-04-21 14:14 38.18085 13.09986 62 ft 14 kts 247°
2026-04-21 14:14 38.18044 13.09866 62 ft 17 kts 247°
2026-04-21 14:15 38.17982 13.09680 64 ft 41 kts 247°
2026-04-21 14:15 38.17913 13.09477 64 ft 21 kts 247°
2026-04-21 14:15 38.17855 13.09305 70 ft 21 kts 247°
2026-04-21 14:15 38.17797 13.09130 65 ft 23 kts 247°
2026-04-21 14:16 38.17732 13.08938 62 ft 24 kts 246°
2026-04-21 14:16 38.17600 13.08814 63 ft 24 kts 222°
2026-04-21 14:16 38.17481 13.08774 64 ft 12 kts 125°
2026-04-21 14:16 38.17496 13.08846 70 ft 8 kts 62°
2026-04-21 14:17 38.17501 13.08858 66 ft 1 kts 63°
2026-04-21 14:17 38.17506 13.08872 64 ft 8 kts 64°
2026-04-21 14:17 38.17628 13.09223 71 ft 100 kts 67°
2026-04-21 14:17 38.18064 13.10527 229 ft 207 kts 66°
2026-04-21 14:18 38.18654 13.12296 1709 ft 217 kts 66°
2026-04-21 14:18 38.19252 13.14062 2798 ft 221 kts 66°
2026-04-21 14:18 38.19903 13.15942 3119 ft 250 kts 66°
2026-04-21 14:18 38.20658 13.18051 3595 ft 267 kts 61°
2026-04-21 14:19 38.21858 13.19900 4300 ft 275 kts 37°
2026-04-21 14:19 38.23493 13.21120 5237 ft 277 kts 22°
2026-04-21 14:19 38.25289 13.22068 6241 ft 278 kts 19°
2026-04-21 14:19 38.27086 13.22961 7173 ft 280 kts 19°
2026-04-21 14:20 38.28901 13.23872 8043 ft 284 kts 19°
2026-04-21 14:20 38.30751 13.24825 8948 ft 287 kts 19°
2026-04-21 14:20 38.32600 13.25796 9838 ft 290 kts 19°
2026-04-21 14:20 38.34500 13.26803 10520 ft 302 kts 19°
2026-04-21 14:21 38.36532 13.27798 10748 ft 324 kts 11°
2026-04-21 14:21 38.38847 13.27890 10956 ft 344 kts 344°
2026-04-21 14:21 38.40971 13.26563 11630 ft 350 kts 318°
2026-04-21 14:21 38.42426 13.24082 12620 ft 353 kts 292°
2026-04-21 14:22 38.43012 13.21048 13662 ft 353 kts 280°
2026-04-21 14:22 38.43414 13.17920 14490 ft 362 kts 280°
2026-04-21 14:22 38.43844 13.14742 15473 ft 367 kts 281°
2026-04-21 14:22 38.44307 13.11508 16469 ft 371 kts 281°
2026-04-21 14:23 38.44781 13.08265 17416 ft 377 kts 281°
2026-04-21 14:23 38.44976 13.04861 18328 ft 384 kts 268°
2026-04-21 14:23 38.44666 13.01476 19114 ft 391 kts 264°
2026-04-21 14:23 38.44282 12.98044 19984 ft 394 kts 264°
2026-04-21 14:24 38.43893 12.94555 20920 ft 396 kts 264°
2026-04-21 14:24 38.43518 12.91079 21816 ft 399 kts 264°
2026-04-21 14:24 38.43151 12.87536 22670 ft 403 kts 265°
2026-04-21 14:24 38.42791 12.83962 23491 ft 407 kts 265°
2026-04-21 14:25 38.42438 12.80399 24175 ft 411 kts 265°
2026-04-21 14:25 38.42079 12.76756 24858 ft 414 kts 265°
2026-04-21 14:25 38.41722 12.73121 25545 ft 417 kts 265°
2026-04-21 14:25 38.41358 12.69425 26196 ft 420 kts 265°
2026-04-21 14:26 38.40994 12.65740 26839 ft 424 kts 265°
2026-04-21 14:26 38.40620 12.61971 27473 ft 427 kts 265°
2026-04-21 14:26 38.40248 12.58230 28075 ft 431 kts 265°
2026-04-21 14:26 38.39864 12.54393 28677 ft 434 kts 265°
2026-04-21 14:27 38.39483 12.50596 29242 ft 437 kts 265°
2026-04-21 14:27 38.39093 12.46720 29790 ft 441 kts 265°
2026-04-21 14:27 38.38702 12.42851 30245 ft 444 kts 265°
2026-04-21 14:27 38.38303 12.38920 30658 ft 446 kts 265°
2026-04-21 14:28 38.37906 12.35013 31087 ft 447 kts 265°
2026-04-21 14:28 38.37502 12.31064 31652 ft 445 kts 265°
2026-04-21 14:28 38.37103 12.27177 32291 ft 441 kts 265°
2026-04-21 14:28 38.36710 12.23348 32905 ft 438 kts 265°
2026-04-21 14:29 38.36311 12.19472 33468 ft 436 kts 265°
2026-04-21 14:29 38.35930 12.15676 33980 ft 432 kts 267°
2026-04-21 14:29 38.35979 12.11829 34271 ft 431 kts 280°
2026-04-21 14:29 38.36783 12.08198 34556 ft 428 kts 292°
2026-04-21 14:30 38.37939 12.04664 34773 ft 432 kts 292°
2026-04-21 14:30 38.39053 12.01128 35106 ft 432 kts 291°
2026-04-21 14:30 38.40153 11.97545 35494 ft 431 kts 291°
2026-04-21 14:30 38.41221 11.94017 35887 ft 431 kts 291°
2026-04-21 14:31 38.42300 11.90427 36227 ft 431 kts 290°
2026-04-21 14:31 38.43366 11.86868 36553 ft 431 kts 290°
2026-04-21 14:31 38.44428 11.83322 36887 ft 431 kts 290°
2026-04-21 14:31 38.45500 11.79737 37229 ft 431 kts 291°
2026-04-21 14:32 38.46571 11.76152 37573 ft 431 kts 291°
2026-04-21 14:32 38.47632 11.72600 37854 ft 431 kts 291°
2026-04-21 14:32 38.48711 11.68985 37901 ft 436 kts 291°
2026-04-21 14:33 38.50863 11.61757 37937 ft 435 kts 290°
2026-04-21 14:33 38.52991 11.54592 37940 ft 429 kts 290°
2026-04-21 14:34 38.55103 11.47462 37939 ft 428 kts 290°
2026-04-21 14:34 38.57197 11.40375 37944 ft 428 kts 290°
2026-04-21 14:35 38.59287 11.33282 37949 ft 428 kts 290°
2026-04-21 14:35 38.61381 11.26157 37934 ft 428 kts 290°
2026-04-21 14:36 38.63481 11.18992 37945 ft 429 kts 290°
2026-04-21 14:36 38.65572 11.11838 37944 ft 430 kts 290°
2026-04-21 14:37 38.67664 11.04663 37941 ft 431 kts 290°
2026-04-21 14:37 38.69399 10.98699 37947 ft 431 kts 290°
2026-04-21 14:38 38.71491 10.91487 37942 ft 432 kts 290°
2026-04-21 14:38 38.73919 10.83078 37942 ft 432 kts 290°
2026-04-21 14:39 38.75654 10.77055 37940 ft 432 kts 290°
2026-04-21 14:39 38.77722 10.69859 37939 ft 432 kts 290°
2026-04-21 14:40 38.79786 10.62653 37939 ft 431 kts 290°
2026-04-21 14:40 38.81847 10.55442 37927 ft 431 kts 290°
2026-04-21 14:41 38.83903 10.48227 37930 ft 431 kts 290°
2026-04-21 14:41 38.85956 10.41006 37938 ft 431 kts 290°
2026-04-21 14:42 38.88000 10.33794 37933 ft 431 kts 290°
2026-04-21 14:42 38.90052 10.26534 37944 ft 431 kts 290°
2026-04-21 14:43 38.92090 10.19302 37932 ft 431 kts 289°
2026-04-21 14:43 38.94124 10.12067 37931 ft 431 kts 289°
2026-04-21 14:44 38.96149 10.04841 37928 ft 431 kts 289°
2026-04-21 14:44 38.98172 9.97606 37929 ft 431 kts 289°
2026-04-21 14:45 39.00196 9.90344 37928 ft 431 kts 289°
2026-04-21 14:45 39.02214 9.83088 37912 ft 430 kts 289°
2026-04-21 14:46 39.04320 9.75888 37948 ft 431 kts 294°
2026-04-21 14:46 39.07029 9.69034 37926 ft 432 kts 296°
2026-04-21 14:47 39.09794 9.62169 37923 ft 432 kts 296°
2026-04-21 14:47 39.12545 9.55270 37927 ft 433 kts 296°
2026-04-21 14:48 39.15276 9.48374 37922 ft 433 kts 296°
2026-04-21 14:48 39.18022 9.41421 37917 ft 434 kts 296°
2026-04-21 14:49 39.20751 9.34493 37938 ft 434 kts 296°
2026-04-21 14:49 39.23491 9.27525 37898 ft 435 kts 296°
2026-04-21 14:50 39.26218 9.20573 37887 ft 434 kts 296°
2026-04-21 14:50 39.28920 9.13669 37882 ft 433 kts 296°
2026-04-21 14:51 39.31635 9.06716 37882 ft 432 kts 295°
2026-04-21 14:51 39.34298 8.99772 37885 ft 431 kts 292°
2026-04-21 14:52 39.36212 8.92459 37882 ft 430 kts 283°
2026-04-21 14:52 39.37519 8.84898 37888 ft 430 kts 282°
2026-04-21 14:53 39.38816 8.77338 37928 ft 431 kts 282°
2026-04-21 14:53 39.40119 8.69800 37938 ft 431 kts 282°
2026-04-21 14:54 39.41437 8.62194 37929 ft 431 kts 282°
2026-04-21 14:54 39.42747 8.54633 37950 ft 432 kts 282°
2026-04-21 14:55 39.44055 8.47043 37941 ft 433 kts 282°
2026-04-21 14:55 39.45362 8.39428 37930 ft 433 kts 282°
2026-04-21 14:56 39.46661 8.31819 37944 ft 433 kts 282°
2026-04-21 14:56 39.47958 8.24195 37939 ft 433 kts 282°
2026-04-21 14:57 39.49247 8.16586 37944 ft 433 kts 282°
2026-04-21 14:57 39.50532 8.08969 37963 ft 433 kts 282°
2026-04-21 14:58 39.51807 8.01381 37944 ft 432 kts 282°
2026-04-21 14:58 39.53073 7.93810 37940 ft 432 kts 282°
2026-04-21 14:59 39.54348 7.86151 37946 ft 432 kts 282°
2026-04-21 14:59 39.55606 7.78566 37949 ft 432 kts 282°
2026-04-21 15:00 39.56863 7.70954 37948 ft 432 kts 282°
2026-04-21 15:00 39.58117 7.63329 37952 ft 432 kts 282°
2026-04-21 15:01 39.59358 7.55744 37949 ft 432 kts 282°
2026-04-21 15:01 39.60595 7.48156 37951 ft 432 kts 282°
2026-04-21 15:02 39.61829 7.40553 37951 ft 432 kts 282°
2026-04-21 15:02 39.63067 7.32887 37952 ft 432 kts 281°
2026-04-21 15:03 39.64287 7.25303 37951 ft 432 kts 281°
2026-04-21 15:03 39.65516 7.17631 37951 ft 432 kts 281°
2026-04-21 15:04 39.66724 7.10054 37953 ft 432 kts 281°
2026-04-21 15:04 39.67936 7.02418 37951 ft 432 kts 281°
2026-04-21 15:05 39.69148 6.94746 37949 ft 432 kts 281°
2026-04-21 15:05 39.70953 6.83267 37950 ft 432 kts 281°
2026-04-21 15:06 39.72067 6.75648 37952 ft 432 kts 279°
2026-04-21 15:06 39.72990 6.67915 37951 ft 432 kts 278°
2026-04-21 15:07 39.73891 6.60190 37949 ft 432 kts 278°
2026-04-21 15:07 39.74807 6.52489 37934 ft 432 kts 279°
2026-04-21 15:08 39.75273 6.48606 37209 ft 442 kts 279°
2026-04-21 15:08 39.75742 6.44704 36657 ft 439 kts 279°
2026-04-21 15:08 39.76214 6.40767 36166 ft 433 kts 279°
2026-04-21 15:08 39.76672 6.36946 35659 ft 428 kts 279°
2026-04-21 15:09 39.77129 6.33116 35144 ft 424 kts 279°
2026-04-21 15:09 39.77571 6.29396 34651 ft 421 kts 279°
2026-04-21 15:09 39.78020 6.25614 34149 ft 418 kts 279°
2026-04-21 15:09 39.78461 6.21882 33608 ft 415 kts 279°
2026-04-21 15:10 39.78893 6.18219 33076 ft 411 kts 278°
2026-04-21 15:10 39.79325 6.14545 32575 ft 408 kts 278°
2026-04-21 15:10 39.79749 6.10929 32088 ft 404 kts 278°
2026-04-21 15:10 39.80172 6.07309 31596 ft 401 kts 278°
2026-04-21 15:11 39.80584 6.03779 31122 ft 397 kts 278°
2026-04-21 15:11 39.80994 6.00251 30660 ft 394 kts 278°
2026-04-21 15:11 39.81403 5.96717 30195 ft 392 kts 278°
2026-04-21 15:11 39.81804 5.93255 29687 ft 389 kts 278°
2026-04-21 15:12 39.82204 5.89784 29169 ft 387 kts 278°
2026-04-21 15:12 39.82604 5.86308 28685 ft 383 kts 278°
2026-04-21 15:12 39.82992 5.82916 28211 ft 380 kts 278°
2026-04-21 15:12 39.83383 5.79502 27742 ft 377 kts 278°
2026-04-21 15:13 39.83763 5.76176 27251 ft 375 kts 278°
2026-04-21 15:13 39.84145 5.72813 26808 ft 372 kts 278°
2026-04-21 15:13 39.84521 5.69501 26346 ft 370 kts 278°
2026-04-21 15:13 39.84895 5.66199 25902 ft 368 kts 278°
2026-04-21 15:14 39.85267 5.62903 25454 ft 366 kts 278°
2026-04-21 15:14 39.85637 5.59612 25014 ft 365 kts 278°
2026-04-21 15:14 39.86001 5.56373 24572 ft 364 kts 278°
2026-04-21 15:14 39.86366 5.53117 24128 ft 362 kts 278°
2026-04-21 15:15 39.86725 5.49903 23699 ft 362 kts 278°
2026-04-21 15:15 39.87089 5.46636 23188 ft 361 kts 278°
2026-04-21 15:15 39.87445 5.43436 22710 ft 359 kts 278°
2026-04-21 15:15 39.87802 5.40211 22251 ft 357 kts 278°
2026-04-21 15:16 39.88157 5.37004 21805 ft 355 kts 278°
2026-04-21 15:16 39.88500 5.33889 21376 ft 353 kts 278°
2026-04-21 15:16 39.88854 5.30673 20926 ft 352 kts 278°
2026-04-21 15:16 39.89193 5.27584 20512 ft 350 kts 278°
2026-04-21 15:17 39.89540 5.24415 20078 ft 349 kts 278°
2026-04-21 15:17 39.89879 5.21308 19649 ft 348 kts 278°
2026-04-21 15:17 39.90221 5.18167 19221 ft 347 kts 278°
2026-04-21 15:17 39.90558 5.15064 18786 ft 346 kts 278°
2026-04-21 15:18 39.90892 5.11979 18362 ft 346 kts 278°
2026-04-21 15:18 39.91229 5.08867 17872 ft 346 kts 278°
2026-04-21 15:18 39.91560 5.05790 17420 ft 345 kts 278°
2026-04-21 15:18 39.91894 5.02681 16980 ft 344 kts 278°
2026-04-21 15:19 39.92222 4.99622 16548 ft 343 kts 278°
2026-04-21 15:19 39.92554 4.96524 16114 ft 342 kts 278°
2026-04-21 15:19 39.92879 4.93478 15682 ft 341 kts 278°
2026-04-21 15:19 39.93206 4.90405 15260 ft 340 kts 278°
2026-04-21 15:20 39.93526 4.87383 14843 ft 340 kts 278°
2026-04-21 15:20 39.93850 4.84325 14426 ft 339 kts 278°
2026-04-21 15:20 39.94172 4.81272 13996 ft 339 kts 278°
2026-04-21 15:20 39.94490 4.78261 13568 ft 339 kts 278°
2026-04-21 15:21 39.94812 4.75205 13107 ft 338 kts 278°
2026-04-21 15:21 39.95127 4.72195 12669 ft 337 kts 278°
2026-04-21 15:21 39.95444 4.69158 12244 ft 336 kts 278°
2026-04-21 15:21 39.95601 4.66132 11797 ft 331 kts 265°
2026-04-21 15:22 39.95073 4.63267 11368 ft 327 kts 253°
2026-04-21 15:22 39.94423 4.60417 11014 ft 320 kts 258°
2026-04-21 15:22 39.94388 4.57647 10817 ft 299 kts 283°
2026-04-21 15:22 39.95066 4.55204 10460 ft 278 kts 297°
2026-04-21 15:23 39.95973 4.53022 9839 ft 270 kts 300°
2026-04-21 15:23 39.96914 4.50941 9048 ft 270 kts 301°
2026-04-21 15:23 39.97890 4.48806 8045 ft 276 kts 301°
2026-04-21 15:23 39.98870 4.46654 7094 ft 280 kts 300°
2026-04-21 15:24 39.99875 4.44433 6139 ft 283 kts 300°
2026-04-21 15:24 40.00868 4.42229 5418 ft 277 kts 300°
2026-04-21 15:24 40.01822 4.40098 4835 ft 270 kts 299°
2026-04-21 15:24 40.02750 4.38018 4670 ft 260 kts 299°
2026-04-21 15:25 40.03666 4.35966 4676 ft 265 kts 299°
2026-04-21 15:25 40.04594 4.33884 4610 ft 264 kts 299°
2026-04-21 15:25 40.05515 4.31812 4259 ft 266 kts 298°
2026-04-21 15:25 40.06111 4.29609 3934 ft 258 kts 272°
2026-04-21 15:26 40.05768 4.27381 3838 ft 245 kts 240°
2026-04-21 15:26 40.04638 4.25837 3683 ft 238 kts 209°
2026-04-21 15:26 40.03024 4.25111 3400 ft 249 kts 194°
2026-04-21 15:26 40.01337 4.24595 3075 ft 253 kts 191°
2026-04-21 15:27 39.99564 4.24244 2739 ft 255 kts 188°
2026-04-21 15:27 39.97818 4.23944 2362 ft 250 kts 188°
2026-04-21 15:27 39.96212 4.23650 2077 ft 220 kts 188°
2026-04-21 15:27 39.94787 4.23386 1821 ft 193 kts 187°
2026-04-21 15:28 39.93534 4.23158 1555 ft 168 kts 187°
2026-04-21 15:28 39.92472 4.22965 1355 ft 148 kts 187°
2026-04-21 15:28 39.91455 4.22877 1164 ft 144 kts 179°
2026-04-21 15:28 39.90453 4.22807 1030 ft 145 kts 188°
2026-04-21 15:29 39.89474 4.22566 867 ft 144 kts 191°
2026-04-21 15:29 39.88805 4.22413 678 ft 142 kts 189°
2026-04-21 15:29 39.87540 4.22126 373 ft 139 kts 189°
2026-04-21 15:29 39.86907 4.21999 311 ft 122 kts 188°
2026-04-21 15:30 39.86497 4.21915 310 ft 46 kts 189°
2026-04-21 15:30 39.86286 4.21874 307 ft 19 kts 181°
2026-04-21 15:30 39.86220 4.21948 307 ft 9 kts 110°
2026-04-21 15:30 39.86213 4.21984 306 ft 0 kts 99°
2026-04-21 15:32 39.86216 4.22056 303 ft 16 kts 63°
2026-04-21 15:32 39.86322 4.22115 303 ft 17 kts 10°
2026-04-21 15:32 39.86441 4.22140 303 ft 17 kts
2026-04-21 15:33 39.86520 4.22162 302 ft 11 kts 28°
2026-04-21 15:33 39.86539 4.22250 300 ft 9 kts 95°
2026-04-21 15:33 39.86539 4.22342 298 ft 11 kts 98°
2026-04-21 15:33 39.86532 4.22407 294 ft 3 kts 99°
2026-04-21 15:34 39.86532 4.22410 294 ft 0 kts 99°